www.pogodaiklimat.ru

Погода и климат >> Архив погоды >> Мексика >> Merida


АРХИВ ПОГОДЫ в Merida

Время (UTC), дата Ветер
(напр.,м/с)
 
Видим.   Явления Облачность Т
(С)
Тd
(С)
f
(%)
Тe
(С)
Тes
(С)
Комфортность P
(гПа)
Po
(гПа)
Тmin
(С)
Tmax
(С)
R
(мм)
R24
(мм)
S
(см)
00 9.12 ЮВ 2 5000 м 1/1 600 м
[Cu hum]
+28.0 +23.7 77 +38 +38 очень
душно
1014.3 1013.0 +22.0 +32.4
03 9.12 ЮВ 1 5000 м ясно +24.9 +22.4 86 +33 +33 очень
душно
1016.1 1014.8
06 9.12 ЮВ 1 5000 м 1/0
[Ac trans]
+24.2 +23.0 93 +32 +32 очень
душно
1016.7 1015.4 +32.4
09 9.12 Ю 1 5000 м 4/0 2000 м
[]
+23.2 +22.8 98 +32 +32 очень
душно
1016.1 1014.8
12 9.12 ЮЗ 1 5000 м дымка 10/10 600 м
[St]
+22.1 +22.0 99 +29 +29 очень
душно
1017.0 1015.7 +21.8 +32.4
15 9.12 З 1 10 км 4/4 600 м
[Cu hum]
+27.5 +24.7 85 +39 +43 очень
душно
1018.3 1017.0
18 9.12 С 2 10 км слабая морось 9/9 600 м
[Cu med, cong]
+27.7 +24.3 82 +39 +40 очень
душно
1017.0 1015.8 0.0
06 10.12 С 2 5000 м 8/8 600 м
[Sc]
+23.0 +20.9 88 +30 +30 очень
душно
1019.6 1018.3 +21.4 +29.5
09 10.12 С 1 5000 м 9/9 600 м
[Sc]
+22.8 +20.0 84 +29 +29 очень
душно
1018.9 1017.6
12 10.12 С 1 5000 м 8/8 600 м
[St]
+22.7 +18.4 77 +28 +28 душно 1020.1 1018.9 +22.3 +29.5
15 10.12 С 2 10 км 6/6 600 м
[Sc]
+23.8 +17.7 69 +28 +30 душно 1022.5 1021.2
18 10.12 С 4 10 км 8/5 600 м
[Sc Ac trans]
+25.7 +15.0 52 +29 +31 душно 1022.3 1021.1 +22.3 +26.0
21 10.12 С 4 10 км 9/5 600 м
[Cu hum Ac trans]
+24.4 +15.7 58 +27 +28 жарко 1020.9 1019.7
00 11.12 СВ 2 5000 м 8/5 300 м
[Sc As op]
+23.4 +15.9 63 +28 +28 душно 1022.3 1021.0 +22.3 +26.2
03 11.12 СВ 1 5000 м 8/3 600 м
[Sc Ac trans]
+22.0 +17.9 78 +27 +27 душно 1024.1 1022.8
06 11.12 В 2 5000 м 8/8 600 м
[]
+21.7 +16.1 70 +25 +25 комфорт 1024.4 1023.1 +26.2
09 11.12 С 1 5000 м 1/1 600 м
[Cu hum]
+20.4 +18.0 86 +25 +25 комфорт 1023.9 1022.6
12 11.12 С 1 10 км 9/0 2000 м
[Ac As]
+20.9 +16.5 76 +26 +26 душно 1025.0 1023.7 +19.8 +26.2
15 11.12 С 3 10 км 9/8 600 м
[Sc diur, vesp Ci fib]
+23.6 +15.0 59 +26 +27 жарко 1026.6 1025.4
18 11.12 С 2 10 км 8/5 600 м
[Sc Ci fib]
+24.9 +19.5 72 +30 +35 душно 1025.0 1023.8 +19.8 +25.4
21 11.12 С 4 10 км 8/4 600 м
[Sc Ac trans Ci fib]
+25.0 +14.9 53 +28 +29 жарко 1023.1 1021.8
00 12.12 СВ 2 5000 м 5/0 2000 м
[Ac trans Ci fib]
+21.4 +15.0 67 +25 +25 комфорт 1023.5 1022.3 +19.8 +26.2
03 12.12 СВ 1 5000 м 3/0
[Ci fib]
+19.7 +15.5 77 +23 +23 комфорт 1025.0 1023.7
09 12.12 штиль 0 5000 м ясно +11.5 +11.5 100 +11 +11 очень
холодно
1021.8 1020.5
12 12.12 штиль 0 5000 м ясно +10.0 +10.0 100 +9 +9 очень
холодно
1021.5 1020.3 +10.0 +26.2
15 12.12 ЮВ 1 10 км 1/1 600 м
[Cu hum]
+21.2 +15.4 69 +24 +29 комфорт 1022.4 1021.1
18 12.12 В 1 10 км 1/1 600 м
[Cu hum]
+26.1 +19.3 66 +31 +43 очень
душно
1019.7 1018.5 +9.8 +27.2
21 12.12 ЮВ 1 10 км 4/1 600 м
[Cu hum Ac trans Ci fib]
+28.2 +21.7 68 +36 +40 очень
душно
1017.2 1015.9
00 13.12 СВ 2 5000 м 1/0
[Ci fib]
+24.2 +23.3 95 +32 +32 очень
душно
1017.0 1015.8 +9.8 +28.9
03 13.12 ЮВ 2 5000 м ясно +21.4 +20.5 95 +27 +27 душно 1017.1 1015.8
09 13.12 ЮВ 2 5000 м 3/0
[Ci fib]
+18.0 +17.2 95 +19 +19 по сезону 1015.2 1013.9
12 13.12 ЮВ 1 10 км 5/0 2000 м
[Ac cast Ci fib]
+17.9 +16.7 93 +19 +19 по сезону 1014.7 1013.5 +17.6 +28.9
15 13.12 В 3 10 км 9/1 600 м
[Cu hum Cs]
+24.4 +21.5 84 +31 +34 очень
душно
1014.4 1013.5
18 13.12 В 3 10 км 5/3 600 м
[Cu hum Ci fib]
+30.8 +24.6 70 +44 +50 опасность
перегрева
1011.4 1010.1 +17.6 +31.6
21 13.12 ЮВ 2 10 км 6/1 600 м
[Cu hum Ci fib]
+33.1 +25.1 63 +47 +51 опасность
перегрева
1009.1 1007.8
06 14.12 ЮВ 1 5000 м 1/0
[Ci fib]
+23.9 +22.1 90 +31 +31 очень
душно
1012.2 1010.9 +33.9
09 14.12 Ю 1 5000 м 3/0 2000 м
[Ac trans Ci fib]
+21.9 +21.1 95 +28 +28 душно 1011.9 1010.7
12 14.12 Ю 1 5000 м 8/0 2000 м
[Ac trans]
+21.0 +20.1 95 +27 +27 душно 1013.1 1011.8 +20.7 +33.9
15 14.12 Ю 1 10 км 8/1 600 м
[Cu hum Cs]
+25.8 +22.4 82 +34 +38 очень
душно
1015.0 1013.8
18 14.12 З 2 10 км 9/9 600 м
[Sc]
+30.0 +26.4 81 +46 +47 опасность
перегрева
1014.4 1013.1 +20.7 +31.0
21 14.12 С 4 10 км 10/10 600 м
[Sc]
+24.4 +23.4 94 +33 +33 очень
душно
1014.7 1013.4
06 15.12 С 1 5000 м 9/9 600 м
[]
+22.5 +18.6 79 +28 +28 душно 1019.5 1018.3 +31.0
09 15.12 ЮЗ 1 5000 м 8/0 2000 м
[]
+21.4 +20.2 93 +27 +27 душно 1019.2 1017.9
12 15.12 З 1 5000 м 8/0 2000 м
[Ac As]
+21.2 +18.0 82 +25 +25 комфорт 1020.3 1019.0 +20.7 +32.0
15 15.12 С 1 10 км 5/1 600 м
[Cu hum Ac trans]
+22.3 +18.7 80 +28 +31 душно 1022.4 1021.1
18 15.12 ЮЗ 2 10 км 6/6 600 м
[Sc]
+26.0 +17.8 61 +30 +35 душно 1021.5 1020.2 +20.4 +26.0

 

Местоположение метеостанции Merida (Мексика): широта 20.98 долгота -89.65 высота над уровнем моря 9 м.

В архиве по умолчанию представлена погода в Merida за последнюю неделю. Архивные данные за месяц целиком и за предыдущие месяцы, начиная с января 2011 года, Вы можете получить, выбрав интересующий диапазон дат из раскрывающегося списка и нажав кнопку "Ввод!".


*Определитесь, кто Вы:
робот инопланетянин человек

Внимание! Время в таблицах - всемирное. Для получения местного времени необходимо прибавить поправку, которая в Merida равна -6 ч.

Смотрите также архив погоды в соседних городах и на ближайших метеорологических станциях:

Погода в Merida 2 (Мексика) (6 км)
Погода в Progreso (Мексика) (36 км)
Погода в Valladolid (Мексика) (154 км)
Погода в Campeche (Мексика) (157 км)
Погода в Felipe Carrillo Puerto (Мексика) (231 км)
Погода в Chetumal (Мексика) (312 км)
Погода в Belize (Белиз) (409 км)
Погода в Flores (Гватемала) (452 км)
Погода в Villahermosa (Мексика) (479 км)
Погода в Cabo San Antonio (Куба) (497 км)

Пояснения к столбцам:

Ветер - указаны скорость ветра в м/с - средняя за 10 мин, порывы в срок и между сроками (в фигурных скобках) и направление, откуда дует ветер: С - северный, СВ - северо-восточный, В - восточный, ЮВ - юго-восточный, Ю - южный, ЮЗ - юго-западный, З - западный, СЗ - северо-западный.
Видимость - горизонтальная дальность видимости в метрах или километрах. При видимости от 1 до 10 км при отсутствии осадков обычно наблюдается дымка, при ухудшении видимости до 1 км и менее - туман. В сухую погоду видимость может ухудшаться дымом, пылью или мглою.
Явления - указаны атмосферные явления, наблюдавшиеся в срок или в последний час перед сроком; фигурными скобками обозначены явления, наблюдавшиеся между сроками (за 1-3 часа до срока); квадратными скобками обозначены град или гололедные отложения с указанием их диаметра в мм.
Облачность - указаны через наклонную черту общая и нижняя облачность в баллах и высота нижней границы облаков в метрах; квадратными скобками обозначены формы облаков: Ci - перистые, Cs - перисто-слоистые, Cc - перисто-кучевые, Ac - высококучевые, As - высокослоистые, Sc - слоисто-кучевые, Ns - слоисто-дождевые, Cu - кучевые, Cb - кучево-дождевые. Подробнее классификацию облаков см. в Атласе облаков (PDF).
T - Температура воздуха - температура, измеренная на высоте 2 м над землей.
Td - Температура точки росы - температура, при понижении до которой содержащийся в воздухе водяной пар достигнет насыщения.
f - Относительная влажность воздуха - влажноcть воздуха, измеренная на высоте 2 м над землей.
Te - Эффективная температура - температура, которую ощущает одетый по сезону человек в тени. Характеристика душности погоды. При расчете учитывается влияние влажности воздуха и скорости ветра на теплоощущения человека.
Tes - Эффективная температура на солнце - температура, которую ощущает человек, с поправкой на солнечный нагрев. Характеристика знойности погоды. Зависит от высоты солнца над горизонтом, облачности и скорости ветра. Ночью, в пасмурную погоду, а также при ветре 12 м/с и более поправка равна нулю.
P - Атмосферное давление - приведенное к уровню моря атмосферное давление.
Po - Атмосферное давление - измеренное на уровне метеостанции атмосферное давление.
Tmin - Минимальная температура - минимум температуры воздуха на высоте 2 м над землей.
Tmax - Максимальная температура - максимум температуры воздуха на высоте 2 м над землей.
R - Количество осадков - Количество выпавших осадков за период времени, мм. При наведении курсора мыши на число - период времени, за который выпало указанное количество осадков.
R24 - Количество осадков - Количество выпавших осадков за 24 часа, мм.
S - Снежный покров - Высота снежного покрова, см. При наведении курсора мыши на число - состояние снежного покрова и степень покрытия местности в баллах.